Weather History for Cordova, AK

Change the Weather History Date:

Saturday, January 26, 2013

  Actual Average Record
Temperature  
Mean Temperature 16 °F -  
Max Temperature 28 °F 30 °F 55 °F (2014)
Min Temperature 1 °F 16 °F -9 °F (1971)
Degree Days  
Heating Degree Days 50    
Moisture  
Dew Point 14 °F    
Average Humidity 85    
Maximum Humidity 93    
Minimum Humidity 68    
Precipitation  
Precipitation 0.00 in - - ()
Snow  
Snow 0.00 in - - ()
Snow Depth 4.00 in    
Sea Level Pressure  
Sea Level Pressure 29.46 in    
Wind  
Wind Speed 1 mph (SSW)    
Max Wind Speed 5 mph    
Max Gust Speed -    
Visibility 9 miles    
Events Snow    
Averages and records for this station are not official NWS values.
T = Trace of Precipitation, MM = Missing Value Source: NWS Daily Summary

Daily Weather History Graph

Daily Weather History Graph

Search for Another Location

Airport:

Trip Planner

Search our weather history database for the weather conditions in past years. The results will help you decide how hot, cold, wet, or windy it might be!

Date:

Astronomy

Jan. 26, 2013 Rise Set
Actual Time 9:10 AM AKST 4:38 PM AKST
Civil Twilight 8:20 AM AKST 5:28 PM AKST
Nautical Twilight 7:28 AM AKST 6:21 PM AKST
Astronomical Twilight 6:38 AM AKST 7:11 PM AKST
Moon 4:59 PM AKST (1/26) 8:22 AM AKST (1/26)
Length of Visible Light 9h 07m
Length of Day
7h 27m
Full, 100% of the Moon is Illuminated
Jan 26
Full
Jan 26
Full
Feb 3
Last Quarter
Feb 9
New
Feb 17
First Quarter

Hourly Weather History & Observations

Time (AKST) Temp. Windchill Dew Point Humidity Pressure Visibility Wind Dir Wind Speed Gust Speed Precip Events Conditions
12:35 AM 28.4 °F - 26.6 °F 93% 29.33 in 10.0 mi Calm Calm - 0.00 in   Overcast
12:48 AM 28.4 °F - 26.6 °F 93% 29.33 in 10.0 mi Calm Calm - 0.00 in   Overcast
12:53 AM 28.9 °F - 26.1 °F 89% 29.33 in 10.0 mi Calm Calm - 0.00 in   Overcast
1:07 AM 28.4 °F - 26.6 °F 93% 29.34 in 8.0 mi Calm Calm - 0.00 in Snow Light Snow
1:53 AM 26.1 °F 21.9 °F 23.0 °F 88% 29.35 in 4.0 mi South 3.5 mph - 0.00 in Snow Light Snow
2:00 AM 24.8 °F - 23.0 °F 93% 29.35 in 5.0 mi Calm Calm - 0.00 in Snow Light Snow
2:15 AM 24.8 °F - 23.0 °F 93% 29.35 in 7.0 mi Calm Calm - 0.00 in Snow Light Snow
3:53 AM 24.1 °F 18.2 °F 21.0 °F 88% 29.36 in 10.0 mi South 4.6 mph - 0.00 in   Overcast
4:53 AM 19.9 °F - 17.1 °F 89% 29.37 in 10.0 mi Calm Calm - N/A   Mostly Cloudy
5:53 AM 18.0 °F - 15.1 °F 88% 29.38 in 10.0 mi Calm Calm - N/A   Partly Cloudy
6:53 AM 17.1 °F - 15.1 °F 92% 29.39 in 10.0 mi Calm Calm - N/A   Overcast
7:53 AM 19.0 °F - 15.1 °F 85% 29.39 in 10.0 mi Calm Calm - N/A   Overcast
8:53 AM 18.0 °F - 15.1 °F 88% 29.42 in 10.0 mi Calm Calm - N/A   Mostly Cloudy
9:53 AM 18.0 °F 11.1 °F 14.0 °F 84% 29.44 in 10.0 mi SW 4.6 mph - N/A   Mostly Cloudy
10:53 AM 19.9 °F - 15.1 °F 81% 29.46 in 10.0 mi Calm Calm - N/A   Mostly Cloudy
11:53 AM 21.0 °F 16.2 °F 16.0 °F 81% 29.47 in 10.0 mi SW 3.5 mph - N/A   Mostly Cloudy
12:53 PM 23.0 °F - 16.0 °F 74% 29.47 in 10.0 mi Calm Calm - N/A   Mostly Cloudy
1:53 PM 21.0 °F - 15.1 °F 78% 29.48 in 10.0 mi Calm Calm - N/A   Scattered Clouds
2:53 PM 19.9 °F - 10.9 °F 68% 29.50 in 10.0 mi Calm Calm - N/A   Scattered Clouds
3:53 PM 19.0 °F - 12.0 °F 74% 29.52 in 10.0 mi Calm Calm - N/A   Scattered Clouds
4:53 PM 15.1 °F - 9.0 °F 77% 29.54 in 10.0 mi Calm Calm - N/A   Scattered Clouds
5:53 PM 10.9 °F 4.7 °F 7.0 °F 84% 29.56 in 10.0 mi SW 3.5 mph - N/A   Clear
6:53 PM 10.0 °F - 3.9 °F 76% 29.57 in 10.0 mi Calm Calm - N/A   Clear
7:53 PM 7.0 °F - 3.9 °F 87% 29.59 in 10.0 mi Calm Calm - N/A   Clear
8:53 PM 7.0 °F - 3.0 °F 84% 29.61 in 10.0 mi Calm Calm - N/A   Clear
9:53 PM 3.9 °F - 1.0 °F 88% 29.63 in 10.0 mi Calm Calm - N/A   Clear
10:53 PM 3.9 °F - -0.0 °F 84% 29.64 in 10.0 mi Calm Calm - N/A   Clear
11:53 PM 1.9 °F - -2.0 °F 83% 29.65 in 10.0 mi Calm Calm - N/A   Clear